| time (UTC) | temp F | wind direction | speed MPH | gust MPH | rain 1hr in | rain 24hr in | rain mn in | humidity % | barometer mb |
| 20260903120023 | 63 | 360 | 5.0 | 7.0 | 0.00 | 0.00 | 0.00 | 78 | 991.7 |
| 20260903115520 | 63 | 360 | 6.0 | 7.0 | 0.00 | 0.00 | 0.00 | 77 | 991.7 |
| 20260903115018 | 64 | 360 | 5.0 | 6.0 | 0.00 | 0.00 | 0.00 | 77 | 991.8 |
| 20260903114518 | 64 | 360 | 4.0 | 7.0 | 0.00 | 0.00 | 0.00 | 76 | 991.6 |
| 20260903114117 | 64 | 360 | 5.0 | 8.0 | 0.00 | 0.00 | 0.00 | 75 | 991.6 |
| 20260903113519 | 65 | 360 | 5.0 | 8.0 | 0.00 | 0.00 | 0.00 | 75 | 991.6 |
| 20260903113021 | 65 | 360 | 6.0 | 8.0 | 0.00 | 0.00 | 0.00 | 74 | 991.6 |
| 20260903112518 | 65 | 360 | 3.0 | 10.0 | 0.00 | 0.00 | 0.00 | 74 | 991.7 |
| 20260903112018 | 66 | 360 | 6.0 | 12.0 | 0.00 | 0.00 | 0.00 | 74 | 991.6 |
| 20260903111518 | 65 | 360 | 7.0 | 12.0 | 0.00 | 0.00 | 0.00 | 75 | 991.7 |
| 20260903111022 | 65 | 360 | 7.0 | 11.0 | 0.00 | 0.00 | 0.00 | 75 | 991.6 |
| 20260903110517 | 65 | 360 | 8.0 | 13.0 | 0.00 | 0.00 | 0.00 | 76 | 991.5 |
| 20260903110018 | 65 | 360 | 8.0 | 13.0 | 0.00 | 0.00 | 0.00 | 76 | 991.3 |
| 20260903105517 | 64 | 360 | 8.0 | 11.0 | 0.00 | 0.00 | 0.00 | 77 | 991.1 |
| 20260903105017 | 64 | 360 | 6.0 | 12.0 | 0.00 | 0.00 | 0.00 | 76 | 991.3 |
| 20260903104517 | 64 | 360 | 7.0 | 13.0 | 0.00 | 0.00 | 0.00 | 76 | 991.3 |
| 20260903104116 | 64 | 360 | 7.0 | 12.0 | 0.00 | 0.00 | 0.00 | 75 | 991.2 |
| 20260903103515 | 64 | 360 | 7.0 | 12.0 | 0.00 | 0.00 | 0.00 | 75 | 991.2 |
| 20260903103015 | 64 | 360 | 7.0 | 14.0 | 0.00 | 0.00 | 0.00 | 75 | 991.3 |
| 20260903102516 | 64 | 360 | 8.0 | 14.0 | 0.00 | 0.00 | 0.00 | 75 | 991.1 |
| 20260903102015 | 64 | 360 | 8.0 | 18.0 | 0.00 | 0.00 | 0.00 | 74 | 991.1 |
| 20260903101535 | 64 | 360 | 10.0 | 18.0 | 0.00 | 0.00 | 0.00 | 74 | 990.8 |
| 20260903101012 | 65 | 38 | 10.0 | 14.0 | 0.00 | 0.00 | 0.00 | 74 | 990.9 |
| 20260903100512 | 65 | 360 | 7.0 | 12.0 | 0.00 | 0.00 | 0.00 | 73 | 991.2 |
| 20260903100012 | 65 | 41 | 8.0 | 14.0 | 0.00 | 0.00 | 0.00 | 73 | 991.1 |
| 20260903095515 | 65 | 31 | 9.0 | 14.0 | 0.00 | 0.00 | 0.00 | 73 | 991.3 |
| 20260903095011 | 65 | 24 | 9.0 | 15.0 | 0.00 | 0.00 | 0.00 | 72 | 991.3 |
| 20260903094657 | 65 | 19 | 10.0 | 15.0 | 0.00 | 0.00 | 0.00 | 72 | 991.2 |
| 20260903094110 | 65 | 17 | 9.0 | 12.0 | 0.00 | 0.00 | 0.00 | 71 | 990.9 |
| 20260903093510 | 65 | 20 | 8.0 | 12.0 | 0.00 | 0.00 | 0.00 | 71 | 990.7 |
| 20260903093010 | 65 | 23 | 8.0 | 13.0 | 0.00 | 0.00 | 0.00 | 70 | 990.6 |
| 20260903092509 | 65 | 14 | 9.0 | 14.0 | 0.00 | 0.00 | 0.00 | 70 | 990.5 |
| 20260903092009 | 66 | 360 | 10.0 | 14.0 | 0.00 | 0.00 | 0.00 | 70 | 990.5 |
| 20260903091508 | 66 | 17 | 10.0 | 16.0 | 0.00 | 0.00 | 0.00 | 70 | 990.6 |
| 20260903091007 | 66 | 18 | 12.0 | 18.0 | 0.00 | 0.00 | 0.00 | 69 | 990.5 |
| 20260903090506 | 67 | 11 | 13.0 | 19.0 | 0.00 | 0.00 | 0.00 | 69 | 990.6 |
| 20260903090005 | 67 | 360 | 12.0 | 16.0 | 0.00 | 0.00 | 0.00 | 69 | 990.7 |
| 20260903085503 | 67 | 22 | 11.0 | 16.0 | 0.00 | 0.00 | 0.00 | 68 | 990.8 |
| 20260903085002 | 67 | 18 | 12.0 | 18.0 | 0.00 | 0.00 | 0.00 | 68 | 990.9 |
| 20260903084507 | 68 | 21 | 11.0 | 15.0 | 0.00 | 0.00 | 0.00 | 67 | 991.1 |
| 20260903084105 | 68 | 19 | 12.0 | 18.0 | 0.00 | 0.00 | 0.00 | 67 | 991.0 |
| 20260903083505 | 68 | 5 | 13.0 | 18.0 | 0.00 | 0.00 | 0.00 | 66 | 991.2 |
| 20260903083003 | 69 | 5 | 11.0 | 18.0 | 0.00 | 0.00 | 0.00 | 68 | 991.3 |
| 20260903082502 | 68 | 351 | 14.0 | 19.0 | 0.00 | 0.00 | 0.00 | 70 | 991.3 |
| 20260903082003 | 68 | 351 | 14.0 | 19.0 | 0.00 | 0.00 | 0.00 | 70 | 991.3 |
| 20260903081502 | 68 | 325 | 13.0 | 20.0 | 0.00 | 0.00 | 0.00 | 68 | 991.4 |
| 20260903081100 | 68 | 301 | 15.0 | 20.0 | 0.00 | 0.00 | 0.00 | 67 | 991.4 |
| 20260903080559 | 69 | 321 | 12.0 | 19.0 | 0.00 | 0.00 | 0.00 | 65 | 991.5 |
| 20260903075557 | 72 | 339 | 10.0 | 14.0 | 0.00 | 0.00 | 0.00 | 71 | 991.7 |
| 20260903075055 | 72 | 360 | 7.0 | 10.0 | 0.00 | 0.00 | 0.00 | 73 | 991.5 |
| 20260903074603 | 72 | 11 | 8.0 | 10.0 | 0.00 | 0.00 | 0.00 | 73 | 991.5 |
| 20260903074059 | 72 | 13 | 6.0 | 9.0 | 0.00 | 0.00 | 0.00 | 73 | 991.5 |
| 20260903073056 | 72 | 360 | 5.0 | 9.0 | 0.00 | 0.00 | 0.00 | 73 | 991.4 |
| 20260903072557 | 72 | 360 | 5.0 | 10.0 | 0.00 | 0.00 | 0.00 | 73 | 991.6 |
| 20260903072056 | 72 | 344 | 6.0 | 10.0 | 0.00 | 0.00 | 0.00 | 73 | 991.5 |
| 20260903071554 | 72 | 311 | 4.0 | 7.0 | 0.00 | 0.00 | 0.00 | 72 | 991.6 |
| 20260903071055 | 72 | 265 | 2.0 | 8.0 | 0.00 | 0.00 | 0.00 | 73 | 991.6 |
| 20260903070556 | 72 | 267 | 6.0 | 8.0 | 0.00 | 0.00 | 0.00 | 72 | 991.7 |
| 20260903070053 | 72 | 360 | 3.0 | 8.0 | 0.00 | 0.00 | 0.00 | 72 | 991.3 |
| 20260903065555 | 72 | 268 | 2.0 | 10.0 | 0.00 | 0.00 | 0.00 | 72 | 991.1 |
| 20260903065051 | 73 | 258 | 7.0 | 10.0 | 0.00 | 0.00 | 0.00 | 71 | 991.3 |
| 20260903064600 | 73 | 201 | 3.0 | 13.0 | 0.00 | 0.00 | 0.00 | 70 | 991.1 |
| 20260903064050 | 73 | 116 | 12.0 | 21.0 | 0.00 | 0.00 | 0.00 | 70 | 990.6 |
| 20260903063051 | 73 | 111 | 11.0 | 21.0 | 0.00 | 0.00 | 0.00 | 70 | 990.2 |
| 20260903062551 | 73 | 104 | 13.0 | 20.0 | 0.00 | 0.00 | 0.00 | 70 | 989.9 |
| 20260903062050 | 73 | 102 | 9.0 | 23.0 | 0.00 | 0.00 | 0.00 | 70 | 989.8 |
| 20260903061550 | 73 | 111 | 14.0 | 23.0 | 0.00 | 0.00 | 0.00 | 70 | 989.8 |
| 20260903061151 | 73 | 128 | 11.0 | 21.0 | 0.00 | 0.00 | 0.00 | 70 | 990.1 |
| 20260903060550 | 73 | 117 | 14.0 | 20.0 | 0.00 | 0.00 | 0.00 | 70 | 990.2 |
| 20260903060054 | 73 | 123 | 11.0 | 22.0 | 0.00 | 0.00 | 0.00 | 70 | 990.2 |
| 20260903055550 | 73 | 143 | 11.0 | 22.0 | 0.00 | 0.00 | 0.00 | 69 | 990.2 |
| 20260903055050 | 73 | 120 | 13.0 | 19.0 | 0.00 | 0.00 | 0.00 | 69 | 989.8 |
| 20260903054549 | 73 | 360 | 9.0 | 16.0 | 0.00 | 0.00 | 0.00 | 68 | 989.8 |
| 20260903054050 | 73 | 114 | 13.0 | 22.0 | 0.00 | 0.00 | 0.00 | 68 | 989.7 |
| 20260903053102 | 74 | 107 | 12.0 | 21.0 | 0.00 | 0.00 | 0.00 | 67 | 989.7 |
| 20260903052548 | 74 | 108 | 15.0 | 21.0 | 0.00 | 0.00 | 0.00 | 67 | 989.9 |
| 20260903052052 | 73 | 105 | 12.0 | 26.0 | 0.00 | 0.00 | 0.00 | 67 | 989.8 |
| 20260903051550 | 73 | 360 | 16.0 | 26.0 | 0.00 | 0.00 | 0.00 | 67 | 989.5 |
| 20260903051047 | 74 | 107 | 14.0 | 27.0 | 0.00 | 0.00 | 0.00 | 66 | 989.4 |
| 20260903050546 | 74 | 92 | 21.0 | 27.0 | 0.00 | 0.00 | 0.00 | 66 | 989.5 |
| 20260903050043 | 74 | 105 | 17.0 | 24.0 | 0.00 | 0.00 | 0.00 | 66 | 989.7 |
| 20260903045543 | 74 | 360 | 15.0 | 26.0 | 0.00 | 0.00 | 0.00 | 65 | 990.0 |
| 20260903045041 | 74 | 360 | 16.0 | 25.0 | 0.00 | 0.00 | 0.00 | 66 | 990.1 |
| 20260903044542 | 75 | 90 | 18.0 | 25.0 | 0.00 | 0.00 | 0.00 | 65 | 990.5 |
| 20260903044039 | 74 | 360 | 13.0 | 20.0 | 0.00 | 0.00 | 0.00 | 66 | 990.7 |
| 20260903043039 | 75 | 105 | 13.0 | 20.0 | 0.00 | 0.00 | 0.00 | 66 | 990.8 |
| 20260903042542 | 75 | 93 | 10.0 | 25.0 | 0.00 | 0.00 | 0.00 | 66 | 990.8 |
| 20260903042039 | 75 | 99 | 12.0 | 25.0 | 0.00 | 0.00 | 0.00 | 65 | 990.9 |
| 20260903041540 | 75 | 112 | 14.0 | 21.0 | 0.00 | 0.00 | 0.00 | 65 | 991.0 |
| 20260903041038 | 75 | 88 | 14.0 | 21.0 | 0.00 | 0.00 | 0.00 | 66 | 991.0 |
| 20260903040537 | 75 | 97 | 12.0 | 24.0 | 0.00 | 0.00 | 0.00 | 66 | 991.1 |
| 20260903040043 | 75 | 103 | 15.0 | 24.0 | 0.00 | 0.00 | 0.00 | 66 | 991.0 |
| 20260903035537 | 75 | 100 | 15.0 | 22.0 | 0.00 | 0.00 | 0.00 | 66 | 991.1 |
| 20260903035034 | 75 | 109 | 14.0 | 21.0 | 0.00 | 0.00 | 0.00 | 66 | 991.0 |
| 20260903034535 | 76 | 94 | 9.0 | 20.0 | 0.00 | 0.00 | 0.00 | 66 | 991.1 |
| 20260903034034 | 76 | 88 | 10.0 | 16.0 | 0.00 | 0.00 | 0.00 | 65 | 991.0 |
| 20260903033031 | 76 | 86 | 12.0 | 18.0 | 0.00 | 0.00 | 0.00 | 65 | 991.3 |
| 20260903032531 | 76 | 94 | 12.0 | 16.0 | 0.00 | 0.00 | 0.00 | 65 | 991.2 |
| 20260903032031 | 76 | 115 | 10.0 | 16.0 | 0.00 | 0.00 | 0.00 | 65 | 991.2 |
| 20260903031532 | 76 | 89 | 10.0 | 15.0 | 0.00 | 0.00 | 0.00 | 65 | 991.0 |
| 20260903031032 | 76 | 87 | 8.0 | 16.0 | 0.00 | 0.00 | 0.00 | 64 | 990.9 |
| 20260903030532 | 76 | 81 | 10.0 | 16.0 | 0.00 | 0.00 | 0.00 | 64 | 990.8 |
| 20260903030033 | 77 | 96 | 9.0 | 15.0 | 0.00 | 0.00 | 0.00 | 64 | 990.9 |
| 20260903025528 | 77 | 83 | 10.0 | 18.0 | 0.00 | 0.00 | 0.00 | 63 | 990.9 |
| 20260903025027 | 77 | 88 | 12.0 | 18.0 | 0.00 | 0.00 | 0.00 | 63 | 991.0 |
| 20260903024526 | 77 | 88 | 11.0 | 20.0 | 0.00 | 0.00 | 0.00 | 63 | 990.9 |
| 20260903024027 | 77 | 98 | 13.0 | 20.0 | 0.00 | 0.00 | 0.00 | 63 | 991.0 |
| 20260903023030 | 78 | 109 | 11.0 | 20.0 | 0.00 | 0.00 | 0.00 | 62 | 991.0 |
| 20260903022525 | 78 | 92 | 12.0 | 18.0 | 0.00 | 0.00 | 0.00 | 62 | 991.0 |
| 20260903022023 | 78 | 102 | 9.0 | 18.0 | 0.00 | 0.00 | 0.00 | 62 | 990.9 |
| 20260903021522 | 78 | 94 | 11.0 | 18.0 | 0.00 | 0.00 | 0.00 | 61 | 991.0 |
| 20260903021021 | 78 | 105 | 13.0 | 18.0 | 0.00 | 0.00 | 0.00 | 61 | 990.9 |
| 20260903020521 | 78 | 93 | 12.0 | 18.0 | 0.00 | 0.00 | 0.00 | 61 | 991.1 |
| 20260903020020 | 79 | 98 | 13.0 | 19.0 | 0.00 | 0.00 | 0.00 | 60 | 991.0 |
| 20260903015522 | 79 | 96 | 13.0 | 21.0 | 0.00 | 0.00 | 0.00 | 60 | 990.9 |
| 20260903015018 | 79 | 103 | 14.0 | 21.0 | 0.00 | 0.00 | 0.00 | 60 | 990.9 |
| 20260903014517 | 79 | 110 | 14.0 | 20.0 | 0.00 | 0.00 | 0.00 | 59 | 990.8 |
| 20260903014018 | 80 | 92 | 14.0 | 20.0 | 0.00 | 0.00 | 0.00 | 59 | 990.8 |
| 20260903013018 | 80 | 109 | 14.0 | 21.0 | 0.00 | 0.00 | 0.00 | 58 | 990.8 |
| 20260903012516 | 80 | 107 | 16.0 | 23.0 | 0.00 | 0.00 | 0.00 | 58 | 990.7 |
| 20260903012016 | 80 | 82 | 17.0 | 23.0 | 0.00 | 0.00 | 0.00 | 57 | 990.7 |
| 20260903011514 | 81 | 101 | 16.0 | 24.0 | 0.00 | 0.00 | 0.00 | 57 | 990.8 |
| 20260903011012 | 81 | 94 | 16.0 | 24.0 | 0.00 | 0.00 | 0.00 | 56 | 990.7 |
| 20260903010515 | 81 | 360 | 16.0 | 23.0 | 0.00 | 0.00 | 0.00 | 56 | 990.8 |
| 20260903010011 | 82 | 108 | 15.0 | 23.0 | 0.00 | 0.00 | 0.00 | 55 | 990.9 |
| 20260903005509 | 82 | 94 | 15.0 | 21.0 | 0.00 | 0.00 | 0.00 | 54 | 990.8 |
| 20260903005013 | 82 | 103 | 14.0 | 22.0 | 0.00 | 0.00 | 0.00 | 54 | 990.7 |
| 20260903004509 | 83 | 109 | 16.0 | 22.0 | 0.00 | 0.00 | 0.00 | 53 | 990.6 |
| 20260903004011 | 83 | 111 | 18.0 | 22.0 | 0.00 | 0.00 | 0.00 | 53 | 990.6 |
| 20260903003006 | 84 | 92 | 17.0 | 24.0 | 0.00 | 0.00 | 0.00 | 51 | 990.6 |
| 20260903002510 | 84 | 109 | 17.0 | 24.0 | 0.00 | 0.00 | 0.00 | 51 | 990.7 |
| 20260903002006 | 84 | 100 | 16.0 | 22.0 | 0.00 | 0.00 | 0.00 | 50 | 990.6 |
| 20260903001505 | 84 | 113 | 15.0 | 22.0 | 0.00 | 0.00 | 0.00 | 50 | 990.7 |
| 20260903001004 | 84 | 360 | 15.0 | 24.0 | 0.00 | 0.00 | 0.00 | 50 | 990.8 |
| 20260903000504 | 84 | 107 | 16.0 | 23.0 | 0.00 | 0.00 | 0.00 | 50 | 990.7 |
| 20260903000005 | 84 | 111 | 14.0 | 23.0 | 0.00 | 0.00 | 0.00 | 49 | 990.8 |
| 20260902235503 | 85 | 109 | 15.0 | 22.0 | 0.00 | 0.00 | 0.00 | 49 | 990.8 |
| 20260902235001 | 85 | 115 | 12.0 | 18.0 | 0.00 | 0.00 | 0.00 | 49 | 990.9 |
| 20260902234504 | 85 | 105 | 12.0 | 22.0 | 0.00 | 0.00 | 0.00 | 48 | 990.9 |
| 20260902234002 | 86 | 103 | 15.0 | 20.0 | 0.00 | 0.00 | 0.00 | 47 | 990.9 |
| 20260902233103 | 86 | 107 | 15.0 | 20.0 | 0.00 | 0.00 | 0.00 | 47 | 990.9 |
| 20260902232559 | 86 | 114 | 16.0 | 24.0 | 0.00 | 0.00 | 0.00 | 48 | 990.9 |
| 20260902232058 | 86 | 111 | 17.0 | 24.0 | 0.00 | 0.00 | 0.00 | 47 | 991.0 |
| 20260902231558 | 86 | 89 | 17.0 | 24.0 | 0.00 | 0.00 | 0.00 | 46 | 990.9 |
| 20260902231102 | 86 | 105 | 15.0 | 24.0 | 0.00 | 0.00 | 0.00 | 47 | 991.1 |
| 20260902230601 | 86 | 80 | 13.0 | 23.0 | 0.00 | 0.00 | 0.00 | 47 | 991.1 |
| 20260902230117 | 86 | 113 | 15.0 | 21.0 | 0.00 | 0.00 | 0.00 | 47 | 991.1 |
| 20260902225558 | 87 | 360 | 15.0 | 21.0 | 0.00 | 0.00 | 0.00 | 46 | 991.2 |
| 20260902225058 | 86 | 121 | 13.0 | 23.0 | 0.00 | 0.00 | 0.00 | 46 | 991.2 |
| 20260902224602 | 86 | 120 | 19.0 | 25.0 | 0.00 | 0.00 | 0.00 | 47 | 991.2 |
| 20260902224058 | 86 | 119 | 16.0 | 24.0 | 0.00 | 0.00 | 0.00 | 46 | 991.1 |
| 20260902223059 | 87 | 106 | 15.0 | 26.0 | 0.00 | 0.00 | 0.00 | 45 | 991.1 |
| 20260902222559 | 86 | 99 | 16.0 | 26.0 | 0.00 | 0.00 | 0.00 | 45 | 991.2 |
| 20260902222059 | 87 | 103 | 15.0 | 23.0 | 0.00 | 0.00 | 0.00 | 45 | 991.3 |
| 20260902221600 | 87 | 114 | 16.0 | 24.0 | 0.00 | 0.00 | 0.00 | 45 | 991.3 |
| 20260902221057 | 87 | 105 | 17.0 | 24.0 | 0.00 | 0.00 | 0.00 | 45 | 991.2 |
| 20260902220557 | 87 | 101 | 15.0 | 23.0 | 0.00 | 0.00 | 0.00 | 44 | 991.3 |
| 20260902220101 | 87 | 112 | 15.0 | 23.0 | 0.00 | 0.00 | 0.00 | 46 | 991.4 |
| 20260902215556 | 86 | 117 | 16.0 | 23.0 | 0.00 | 0.00 | 0.00 | 46 | 991.3 |
| 20260902215056 | 86 | 119 | 16.0 | 24.0 | 0.00 | 0.00 | 0.00 | 45 | 991.4 |
| 20260902214604 | 87 | 101 | 20.0 | 24.0 | 0.00 | 0.00 | 0.00 | 45 | 991.4 |
| 20260902214054 | 87 | 120 | 16.0 | 25.0 | 0.00 | 0.00 | 0.00 | 45 | 991.5 |
| 20260902213019 | 87 | 128 | 15.0 | 23.0 | 0.00 | 0.00 | 0.00 | 45 | 991.6 |
| 20260902212518 | 86 | 117 | 16.0 | 28.0 | 0.00 | 0.00 | 0.00 | 46 | 991.7 |
| 20260902212018 | 87 | 112 | 19.0 | 28.0 | 0.00 | 0.00 | 0.00 | 46 | 991.8 |
| 20260902211517 | 86 | 110 | 14.0 | 24.0 | 0.00 | 0.00 | 0.00 | 46 | 991.8 |
| 20260902211018 | 87 | 99 | 17.0 | 24.0 | 0.00 | 0.00 | 0.00 | 45 | 991.8 |
| 20260902210516 | 87 | 360 | 15.0 | 23.0 | 0.00 | 0.00 | 0.00 | 45 | 991.8 |
| 20260902210015 | 86 | 120 | 18.0 | 23.0 | 0.00 | 0.00 | 0.00 | 47 | 991.8 |
| 20260902205514 | 86 | 135 | 16.0 | 25.0 | 0.00 | 0.00 | 0.00 | 46 | 991.9 |
| 20260902205019 | 87 | 126 | 15.0 | 25.0 | 0.00 | 0.00 | 0.00 | 47 | 992.0 |
| 20260902204515 | 86 | 360 | 16.0 | 26.0 | 0.00 | 0.00 | 0.00 | 47 | 992.0 |
| 20260902204013 | 86 | 132 | 20.0 | 26.0 | 0.00 | 0.00 | 0.00 | 47 | 992.2 |
| 20260902203059 | 86 | 360 | 17.0 | 25.0 | 0.00 | 0.00 | 0.00 | 48 | 992.2 |
| 20260902202653 | 86 | 114 | 18.0 | 24.0 | 0.00 | 0.00 | 0.00 | 48 | 992.3 |
| 20260902202052 | 86 | 117 | 18.0 | 24.0 | 0.00 | 0.00 | 0.00 | 47 | 992.5 |
| 20260902201551 | 85 | 109 | 14.0 | 24.0 | 0.00 | 0.00 | 0.00 | 49 | 992.4 |
| 20260902201052 | 85 | 99 | 18.0 | 25.0 | 0.00 | 0.00 | 0.00 | 48 | 992.5 |
| 20260902200549 | 86 | 128 | 15.0 | 25.0 | 0.00 | 0.00 | 0.00 | 48 | 992.5 |
| 20260902200100 | 85 | 127 | 16.0 | 25.0 | 0.00 | 0.00 | 0.00 | 48 | 992.6 |
| 20260902195549 | 85 | 119 | 17.0 | 25.0 | 0.00 | 0.00 | 0.00 | 49 | 992.8 |
| 20260902195047 | 85 | 101 | 14.0 | 26.0 | 0.00 | 0.00 | 0.00 | 49 | 992.8 |
| 20260902194547 | 85 | 112 | 19.0 | 27.0 | 0.00 | 0.00 | 0.00 | 49 | 992.8 |
| 20260902194047 | 84 | 128 | 14.0 | 27.0 | 0.00 | 0.00 | 0.00 | 50 | 992.7 |
| 20260902193039 | 85 | 132 | 16.0 | 27.0 | 0.00 | 0.00 | 0.00 | 50 | 993.0 |
| 20260902192537 | 84 | 110 | 21.0 | 27.0 | 0.00 | 0.00 | 0.00 | 50 | 993.1 |
| 20260902192037 | 84 | 103 | 18.0 | 26.0 | 0.00 | 0.00 | 0.00 | 50 | 993.1 |
| 20260902191550 | 85 | 100 | 16.0 | 25.0 | 0.00 | 0.00 | 0.00 | 50 | 993.4 |
| 20260902191035 | 84 | 115 | 16.0 | 23.0 | 0.00 | 0.00 | 0.00 | 51 | 993.4 |
| 20260902190539 | 83 | 109 | 17.0 | 22.0 | 0.00 | 0.00 | 0.00 | 51 | 993.5 |
| 20260902190049 | 82 | 128 | 15.0 | 22.0 | 0.00 | 0.00 | 0.00 | 52 | 993.6 |
| 20260902185534 | 83 | 111 | 15.0 | 25.0 | 0.00 | 0.00 | 0.00 | 51 | 993.7 |
| 20260902185034 | 83 | 138 | 15.0 | 25.0 | 0.00 | 0.00 | 0.00 | 50 | 993.8 |
| 20260902184534 | 84 | 123 | 16.0 | 27.0 | 0.00 | 0.00 | 0.00 | 51 | 993.6 |
| 20260902184034 | 82 | 117 | 16.0 | 22.0 | 0.00 | 0.00 | 0.00 | 53 | 993.8 |
| 20260902183030 | 82 | 119 | 16.0 | 24.0 | 0.00 | 0.00 | 0.00 | 52 | 994.0 |
| 20260902182529 | 82 | 139 | 18.0 | 24.0 | 0.00 | 0.00 | 0.00 | 52 | 994.2 |
| 20260902182028 | 83 | 139 | 17.0 | 24.0 | 0.00 | 0.00 | 0.00 | 52 | 994.3 |
| 20260902181527 | 82 | 130 | 16.0 | 25.0 | 0.00 | 0.00 | 0.00 | 53 | 994.4 |
| 20260902181026 | 82 | 118 | 20.0 | 28.0 | 0.00 | 0.00 | 0.00 | 53 | 994.4 |
| 20260902180526 | 82 | 141 | 20.0 | 28.0 | 0.00 | 0.00 | 0.00 | 54 | 994.4 |
| 20260902180033 | 82 | 111 | 16.0 | 26.0 | 0.00 | 0.00 | 0.00 | 54 | 994.5 |
| 20260902175525 | 81 | 119 | 18.0 | 25.0 | 0.00 | 0.00 | 0.00 | 54 | 994.7 |
| 20260902175025 | 81 | 138 | 15.0 | 27.0 | 0.00 | 0.00 | 0.00 | 56 | 994.7 |
| 20260902174522 | 81 | 102 | 19.0 | 27.0 | 0.00 | 0.00 | 0.00 | 55 | 994.9 |
| 20260902174024 | 80 | 113 | 18.0 | 28.0 | 0.00 | 0.00 | 0.00 | 56 | 995.0 |
| 20260902173033 | 80 | 129 | 18.0 | 24.0 | 0.00 | 0.00 | 0.00 | 57 | 995.0 |
| 20260902172527 | 79 | 107 | 18.0 | 24.0 | 0.00 | 0.00 | 0.00 | 57 | 995.1 |
| 20260902172022 | 79 | 130 | 16.0 | 24.0 | 0.00 | 0.00 | 0.00 | 57 | 995.1 |
| 20260902171521 | 79 | 109 | 17.0 | 24.0 | 0.00 | 0.00 | 0.00 | 58 | 995.2 |
| 20260902171020 | 79 | 121 | 19.0 | 25.0 | 0.00 | 0.00 | 0.00 | 59 | 995.2 |
| 20260902170520 | 79 | 123 | 17.0 | 27.0 | 0.00 | 0.00 | 0.00 | 59 | 995.2 |
| 20260902170020 | 78 | 138 | 17.0 | 25.0 | 0.00 | 0.00 | 0.00 | 60 | 995.3 |
| 20260902165520 | 79 | 146 | 15.0 | 22.0 | 0.00 | 0.00 | 0.00 | 59 | 995.1 |
| 20260902165020 | 78 | 132 | 16.0 | 22.0 | 0.00 | 0.00 | 0.00 | 60 | 995.3 |
| 20260902164523 | 78 | 360 | 13.0 | 23.0 | 0.00 | 0.00 | 0.00 | 62 | 995.2 |
| 20260902164022 | 77 | 360 | 16.0 | 23.0 | 0.00 | 0.00 | 0.00 | 63 | 995.3 |
| 20260902163018 | 76 | 123 | 13.0 | 22.0 | 0.00 | 0.00 | 0.00 | 67 | 995.4 |
| 20260902162516 | 75 | 121 | 15.0 | 22.0 | 0.00 | 0.00 | 0.00 | 67 | 995.5 |
| 20260902162019 | 75 | 125 | 15.0 | 20.0 | 0.00 | 0.00 | 0.00 | 68 | 995.4 |
| 20260902161527 | 75 | 360 | 13.0 | 22.0 | 0.00 | 0.00 | 0.00 | 68 | 995.5 |
| 20260902161016 | 74 | 138 | 15.0 | 21.0 | 0.00 | 0.00 | 0.00 | 68 | 995.5 |
| 20260902160515 | 74 | 117 | 12.0 | 19.0 | 0.00 | 0.00 | 0.00 | 70 | 995.6 |
| 20260902160015 | 73 | 104 | 10.0 | 15.0 | 0.00 | 0.00 | 0.00 | 71 | 995.6 |
| 20260902155515 | 73 | 126 | 11.0 | 21.0 | 0.00 | 0.00 | 0.00 | 71 | 995.6 |
| 20260902155013 | 72 | 117 | 13.0 | 21.0 | 0.00 | 0.00 | 0.00 | 72 | 995.7 |
| 20260902154512 | 71 | 121 | 10.0 | 18.0 | 0.00 | 0.00 | 0.00 | 67 | 995.9 |
| 20260902154017 | 71 | 111 | 11.0 | 16.0 | 0.00 | 0.00 | 0.00 | 67 | 996.0 |
| 20260902153012 | 70 | 138 | 11.0 | 16.0 | 0.00 | 0.00 | 0.00 | 66 | 996.2 |
| 20260902152511 | 69 | 122 | 12.0 | 16.0 | 0.00 | 0.00 | 0.00 | 65 | 996.1 |
| 20260902152013 | 69 | 110 | 12.0 | 18.0 | 0.00 | 0.00 | 0.00 | 65 | 996.4 |
| 20260902151511 | 68 | 107 | 11.0 | 18.0 | 0.00 | 0.00 | 0.00 | 65 | 996.4 |
| 20260902151010 | 68 | 132 | 12.0 | 18.0 | 0.00 | 0.00 | 0.00 | 65 | 996.4 |
| 20260902150509 | 67 | 137 | 12.0 | 16.0 | 0.00 | 0.00 | 0.00 | 66 | 996.5 |
| 20260902150009 | 67 | 111 | 10.0 | 15.0 | 0.00 | 0.00 | 0.00 | 66 | 996.5 |
| 20260902145509 | 67 | 119 | 10.0 | 13.0 | 0.00 | 0.00 | 0.00 | 65 | 996.4 |
| 20260902145108 | 66 | 121 | 9.0 | 12.0 | 0.00 | 0.00 | 0.00 | 66 | 996.4 |
| 20260902144508 | 66 | 360 | 8.0 | 12.0 | 0.00 | 0.00 | 0.00 | 66 | 996.6 |
| 20260902144008 | 65 | 99 | 9.0 | 12.0 | 0.00 | 0.00 | 0.00 | 66 | 996.6 |
| 20260902143009 | 64 | 360 | 7.0 | 13.0 | 0.00 | 0.00 | 0.00 | 68 | 996.6 |
| 20260902142508 | 64 | 360 | 8.0 | 12.0 | 0.00 | 0.00 | 0.00 | 67 | 996.7 |
| 20260902142009 | 64 | 123 | 8.0 | 12.0 | 0.00 | 0.00 | 0.00 | 68 | 996.6 |
| 20260902141508 | 63 | 360 | 8.0 | 11.0 | 0.00 | 0.00 | 0.00 | 68 | 996.8 |
| 20260902141111 | 63 | 360 | 7.0 | 10.0 | 0.00 | 0.00 | 0.00 | 69 | 996.8 |
| 20260902140507 | 63 | 360 | 8.0 | 10.0 | 0.00 | 0.00 | 0.00 | 69 | 996.9 |
| 20260902140007 | 62 | 113 | 6.0 | 10.0 | 0.00 | 0.00 | 0.00 | 70 | 996.8 |
| 20260902135507 | 62 | 360 | 6.0 | 10.0 | 0.00 | 0.00 | 0.00 | 71 | 996.8 |
| 20260902135007 | 61 | 113 | 5.0 | 9.0 | 0.00 | 0.00 | 0.00 | 72 | 996.8 |
| 20260902134510 | 61 | 121 | 6.0 | 8.0 | 0.00 | 0.00 | 0.00 | 72 | 996.8 |
| 20260902134008 | 61 | 360 | 5.0 | 7.0 | 0.00 | 0.00 | 0.00 | 73 | 996.7 |
| 20260902133007 | 59 | 137 | 4.0 | 6.0 | 0.00 | 0.00 | 0.00 | 76 | 996.9 |
| 20260902132510 | 59 | 138 | 4.0 | 6.0 | 0.00 | 0.00 | 0.00 | 76 | 996.9 |
| 20260902132006 | 59 | 360 | 4.0 | 6.0 | 0.00 | 0.00 | 0.00 | 77 | 997.1 |
| 20260902131507 | 58 | 136 | 4.0 | 6.0 | 0.00 | 0.00 | 0.00 | 77 | 996.9 |
| 20260902131006 | 58 | 136 | 4.0 | 8.0 | 0.00 | 0.00 | 0.00 | 78 | 996.9 |
| 20260902130507 | 58 | 134 | 5.0 | 8.0 | 0.00 | 0.00 | 0.00 | 78 | 996.9 |
| 20260902130006 | 57 | 360 | 5.0 | 7.0 | 0.00 | 0.00 | 0.00 | 78 | 996.9 |
| 20260902125506 | 57 | 142 | 5.0 | 7.0 | 0.00 | 0.00 | 0.00 | 79 | 996.7 |
| 20260902125006 | 56 | 135 | 5.0 | 7.0 | 0.00 | 0.00 | 0.00 | 79 | 996.6 |
| 20260902124507 | 56 | 138 | 4.0 | 7.0 | 0.00 | 0.00 | 0.00 | 79 | 996.7 |
| 20260902124005 | 56 | 170 | 5.0 | 7.0 | 0.00 | 0.00 | 0.00 | 79 | 996.8 |
| 20260902123006 | 56 | 171 | 5.0 | 7.0 | 0.00 | 0.00 | 0.00 | 80 | 996.6 |
| 20260902122506 | 55 | 174 | 5.0 | 7.0 | 0.00 | 0.00 | 0.00 | 81 | 996.6 |
| 20260902122007 | 55 | 360 | 4.0 | 6.0 | 0.00 | 0.00 | 0.00 | 81 | 996.7 |
| 20260902121505 | 54 | 202 | 4.0 | 6.0 | 0.00 | 0.00 | 0.00 | 81 | 996.6 |
| 20260902121006 | 55 | 202 | 4.0 | 7.0 | 0.00 | 0.00 | 0.00 | 80 | 996.6 |
| 20260902120506 | 55 | 360 | 5.0 | 7.0 | 0.00 | 0.00 | 0.00 | 80 | 996.5 |